CYPX

Puvirnituq Airport

ICAO Code CYPX
IATA Code YPX
Name Puvirnituq Airport
Location Puvirnituq, Quebec, CA
Elevation 83 Feet / 25.3 Meters
Latitude 60.05222222
Longitude -77.28750000
METAR CYPX 012300Z AUTO 29010G15KT 9SM OVC044 10/07 A2973 RMK SLP070
Extra information Display Charts and CFS
Display NOTAMS
Runway Length Width Surface Elevation
01 6299 ft 148 ft GVL 54 ft
19 6299 ft 148 ft GVL 83 ft